Regional Weather Roundup
Issued by NWS Upton, NY

Current Version | Previous Version | Graphics & Text | Print | Product List | Glossary Off
Versions: 1 2 3 4 5 6 7 8 9 10 11 12 13 14 15 16 17 18 19 20 21 22 23 24 25 26 27 28 29 30 31 32 33 34 35 36 37 38 39 40 41 42 43 44 45 46 47 48 49 50

000
ASUS41 KOKX 270408
RWROKX

REGIONAL WEATHER ROUNDUP
NATIONAL WEATHER SERVICE NEW YORK NY
1200 AM EDT MON MAR 27 2017

NOTE: "FAIR" INDICATES FEW OR NO CLOUDS BELOW 12,000 FEET WITH NO
SIGNIFICANT WEATHER AND/OR OBSTRUCTIONS TO VISIBILITY.

NYZ071-072-176-178-NJZ106-104-270500-
NEW YORK CITY METRO AREA

CITY           SKY/WX    TMP DP  RH WIND       PRES   REMARKS
Central Park   CLOUDY    39  38  96 NE5       30.34F FOG
Wall St Helipt CLOUDY    39  39 100 NE10      30.33F WCI  32
LaGuardia APRT DRIZZLE   40  37  89 NE13      30.33F FOG     WCI  32
Kennedy INTL   DRIZZLE   40  39  97 NE9       30.33F FOG     WCI  34
Breezy Point     N/A     37 N/A N/A NE10        N/A  WCI  30
Newark/Liberty DRIZZLE   41  39  93 NE7       30.32F FOG
Teterboro      CLOUDY    39  37  92 NE8       30.32F FOG     WCI  33
$$

NYZ177-179-078>081-270500-
LONG ISLAND NEW YORK

CITY           SKY/WX    TMP DP  RH WIND       PRES   REMARKS
Jones Beach      N/A     39 N/A N/A E16         N/A  WCI  30
Matinecock PT    N/A     37 N/A N/A E20         N/A  WCI  27
Farmingdale    CLOUDY    39  38  96 E7        30.32F FOG     WCI  34
MacArthur/ISP  DRIZZLE   38  38 100 E9        30.31F FOG     WCI  31
Shirley        CLOUDY    38  38 100 E6        30.33F FOG     WCI  33
Westhampton    LGT RAIN  38  36  92 E6        30.35F FOG     WCI  33
East Hampton   DRIZZLE   37  36  96 E6        30.35S WCI  32
Montauk          N/A     38  36  92 E6        30.37F WCI  33
$$

NYZ052-065-067-270500-
HUDSON VALLEY

CITY           SKY/WX    TMP DP  RH WIND       PRES   REMARKS
White Plains   LGT RAIN  36  35  96 E9        30.31F VSB 1   WCI  29
Newburgh       CLOUDY    36  36 100 SE7       30.34F FOG     WCI  30
Montgomery     CLOUDY    37  34  89 E5        30.31F FOG     WCI  33
Poughkeepsie   CLOUDY    36  32  85 CALM      30.33F
Albany         CLOUDY    37  30  75 S10       30.29F WCI  30
$$

NJZ001-105-106-008-010-013-015-019>022-104-270500-
NEW JERSEY

CITY           SKY/WX    TMP DP  RH WIND       PRES   REMARKS
Newark/Liberty DRIZZLE   41  39  93 NE7       30.32F FOG
Teterboro      CLOUDY    39  37  92 NE8       30.32F FOG     WCI  33
Caldwell       CLOUDY    38  37  97 NE6       30.33F FOG     WCI  33
Somerville     CLOUDY    40  39  97 E5        30.28F FOG
Linden         CLOUDY    40  38  92 E8        30.32F FOG     WCI  35
Sussex         CLOUDY    37  36  96 N3        30.30F FOG
Andover          N/A     37  35  92 VRB5      30.28F WCI  33
Trenton        CLOUDY    40  39  97 E6        30.28F FOG
Millville      CLOUDY    43  43 100 NE8       30.24F FOG
Atlantic City  CLOUDY    44  43  96 NE8       30.26F FOG
Wrightstown    CLOUDY    41  40  96 NE6       30.25F FOG
Toms River     LGT RAIN  41  41 100 NE8       30.29F FOG
Belmar         LGT RAIN  40  39  97 NE12      30.30F FOG     WCI  33
$$

PAZ047>061-062-071-270500-
EASTERN PENNSYLVANIA

CITY           SKY/WX    TMP DP  RH WIND       PRES   REMARKS
Philadelphia   CLOUDY    41  40  96 E8        30.28F FOG
Allentown      CLOUDY    40  37  89 E7        30.27F FOG
Scranton       CLOUDY    39  35  86 CALM      30.22F
$$

CTZ002-004>006-009-010-012-RIZ004-006-007-MAZ004-011-015-270500-
SOUTHERN NEW ENGLAND
 IN CT

CITY           SKY/WX    TMP DP  RH WIND       PRES   REMARKS
Bradley INTL   CLOUDY    37  29  72 SE7       30.37F WCI  32
Hartford       CLOUDY    38  28  67 SE6       30.36F WCI  33
Danbury        CLOUDY    35  34  96 E6        30.34F FOG     WCI  30
Wtrbury/Oxford CLOUDY    34  28  80 E3        30.33F
Bridgeport     CLOUDY    38  35  89 E14       30.35S FOG     WCI  30
Meriden        CLOUDY    37  30  75 E5        30.36F WCI  33
New Haven      CLOUDY    37  34  89 E8        30.35F FOG     WCI  31
Chester        NOT AVBL
Groton         CLOUDY    37  33  85 E9        30.37F FOG     WCI  30
Wilimantic     CLOUDY    39  29  67 SE8       30.37F WCI  33

 IN RI

CITY           SKY/WX    TMP DP  RH WIND       PRES   REMARKS
Providence     CLOUDY    38  28  67 E7        30.39F WCI  33
Block Island   MIX PCPN  37  35  92 E10       30.37F FOG     WCI  30
Westerly       CLOUDY    37  34  89 E8        30.38F FOG     WCI  31
 IN MA

CITY           SKY/WX    TMP DP  RH WIND       PRES   REMARKS
Boston         CLOUDY    37  32  82 SE7       30.41F WCI  32
Worcester      CLOUDY    32  26  78 E7        30.34F WCI  26
Westfield      CLOUDY    37  28  70 SE5       30.36F WCI  33
Provincetown   CLOUDY    38  31  76 E5        30.41F WCI  34
Nantucket      CLOUDY    38  32  79 E14       30.36F WCI  30
$$

ANZ330-335-338-340-345-350-353-355-270500-
COASTAL MARINE OBSERVATIONS


STATION/POSITION TIME  SKY/WX   TEMP    WIND        PRES    VSBY  WAVE
                                AIR SEA DIR/SP/G                  HT/PER
                 (UTC)          (F)     (DEG/KT/KT) (MB)    (MI)  (FT/S)
NY HARB ENTRANCE 0250            41 42   70/ 16/ 19 1026.6          5/ 7
20 S FIRE ISLAND 0350            41 40   70/ 14/ 17 1025.5          7/ 7
GREAT SOUTH BAY  NOT AVBL
23 SSW MONTAUK P 0250            40 43              1027.5          7/ 6
15 E BARNEGAT LI 0330               43                N/A           6/ 7
HUDSON CANYON    0250            47 44  100/ 12/ 14 1025.3          8/ 8
KINGS POINT      0336            38 39              1027.2
EXECUTION ROCKS  NOT AVBL
CENTRAL LI SOUND 0315            38      90/ 12/ 14   N/A           3/ 4
EASTERN LI SOUND NOT AVBL
ROBBINS REEF     0348            40      70/ 11/ 12 1026.9
$$


>>>>>>>>>>>>>>>>>>>>>>>>>>>> KEY <<<<<<<<<<<<<<<<<<<<<<<<<<<
>                                                          <
>     SKY/WX - Sky Condition/Present Weather               <
>     TMP    - Temperature in Fahrenheit                   <
>     DP     - Dew Point in Fahrenheit                     <
>     RH     - Relative Humidity in Percent                <
>     WIND   - Direction (from) and Speed in MPH           <
>     PRES   - Mean Sea Level Pressure (inches of Hg)      <
>     WCI    - Wind Chill Index                            <
>     VSB    - VISIBILITY IN MILES                         <
>     HX     - HEAT INDEX                                  <
>     TC     - TEMPERATURE IN CELSIUS                      <
>     VRB    - VARIABLE WIND DIRECTION                     <
>                                                          <
>>>>>>>>>>>>>>>>>>>>>>>>>>>> KEY <<<<<<<<<<<<<<<<<<<<<<<<<<<



USA.gov is the U.S. government's official web portal to all federal, state and local government web resources and services.